Weather History for Centralia, IL

Change the Weather History Date:

Tuesday, October 1, 2013

  Actual Average (KSLO) Record (KSLO)
Temperature  
Mean Temperature 72 °F -  
Max Temperature 80 °F 77 °F 89 °F (1971)
Min Temperature 64 °F 49 °F 33 °F (1958)
Cooling Degree Days 7    
Growing Degree Days 22 (Base 50)    
Moisture  
Dew Point 67 °F    
Average Humidity 85    
Maximum Humidity 93    
Minimum Humidity 70    
Precipitation  
Precipitation 0.00 in - - ()
Sea Level Pressure  
Sea Level Pressure 30.02 in    
Wind  
Wind Speed 6 mph (South)    
Max Wind Speed 10 mph    
Max Gust Speed 17 mph    
Visibility 7 miles    
Events      
Averages and records for this station are not official NWS values.
T = Trace of Precipitation, MM = Missing Value Source: NWS Daily Summary

Daily Weather History Graph

Daily Weather History Graph

Search for Another Location

Airport:

Trip Planner

Search our weather history database for the weather conditions in past years. The results will help you decide how hot, cold, wet, or windy it might be!

Date:

Astronomy

Oct. 01, 2013 Rise Set
Actual Time 6:52 AM CDT 6:38 PM CDT
Civil Twilight 6:25 AM CDT 7:05 PM CDT
Nautical Twilight 5:55 AM CDT 7:35 PM CDT
Astronomical Twilight 5:24 AM CDT 8:06 PM CDT
Moon 3:28 AM CDT (10/1) 4:40 PM CDT (10/1)
Length of Visible Light 12h 39m
Length of Day
11h 46m
Waning Crescent, 12% of the Moon is Illuminated
Oct 1
Waning Crescent
Oct 4
New
Oct 11
First Quarter
Oct 18
Full
Oct 26
Last Quarter

Hourly Weather History & Observations

Time (CDT) Temp. Heat Index Dew Point Humidity Pressure Visibility Wind Dir Wind Speed Gust Speed Precip Events Conditions
12:15 AM 68.7 °F - 65.3 °F 89% 29.98 in 10.0 mi South 9.2 mph - N/A   Unknown
12:35 AM 68.7 °F - 65.3 °F 89% 29.98 in 10.0 mi SSW 6.9 mph - N/A   Unknown
12:55 AM 68.9 °F - 65.3 °F 88% 29.98 in 10.0 mi SSW 6.9 mph - N/A   Unknown
1:15 AM 68.9 °F - 65.3 °F 88% 29.98 in 10.0 mi South 10.4 mph - N/A   Unknown
1:35 AM 69.1 °F - 65.3 °F 88% 29.99 in 10.0 mi South 10.4 mph 17.3 mph N/A   Unknown
1:55 AM 68.9 °F - 65.1 °F 88% 29.99 in 10.0 mi South 8.1 mph - N/A   Unknown
2:15 AM 68.9 °F - 65.3 °F 88% 29.99 in 10.0 mi South 5.8 mph - N/A   Unknown
2:35 AM 68.5 °F - 65.3 °F 89% 29.98 in 10.0 mi South 6.9 mph - N/A   Unknown
2:55 AM 67.6 °F - 64.4 °F 89% 29.98 in 7.0 mi SSE 3.5 mph - N/A   Unknown
3:15 AM 66.9 °F - 64.2 °F 91% 29.98 in 7.0 mi SSE 3.5 mph - N/A   Unknown
3:35 AM 67.5 °F - 64.9 °F 92% 29.98 in 7.0 mi SSE 5.8 mph - N/A   Unknown
3:55 AM 67.1 °F - 64.4 °F 91% 29.98 in 7.0 mi SSE 4.6 mph - N/A   Unknown
4:15 AM 66.2 °F - 63.5 °F 91% 29.98 in 7.0 mi SE 4.6 mph - N/A   Unknown
4:35 AM 65.5 °F - 63.0 °F 92% 29.99 in 5.0 mi SE 3.5 mph - N/A   Mist
4:55 AM 64.2 °F - 61.9 °F 92% 29.99 in 3.0 mi South 4.6 mph - N/A   Mist
5:15 AM 64.0 °F - 62.1 °F 93% 30.00 in 5.0 mi SSE 5.8 mph - N/A   Mist
5:35 AM 67.1 °F - 64.9 °F 93% 30.00 in 7.0 mi South 6.9 mph - N/A   Unknown
5:55 AM 67.1 °F - 64.8 °F 92% 30.01 in 7.0 mi South 5.8 mph - N/A   Unknown
6:15 AM 67.3 °F - 65.1 °F 93% 30.02 in 5.0 mi South 5.8 mph - N/A   Mist
6:35 AM 67.6 °F - 65.3 °F 92% 30.03 in 5.0 mi South 4.6 mph - N/A   Mist
6:55 AM 68.0 °F - 65.5 °F 92% 30.03 in 4.0 mi SSE 5.8 mph - N/A   Mist
7:15 AM 68.0 °F - 65.5 °F 92% 30.03 in 4.0 mi South 6.9 mph - N/A   Mist
7:35 AM 68.2 °F - 65.7 °F 92% 30.04 in 3.0 mi SSE 5.8 mph - N/A   Mist
7:55 AM 68.5 °F - 66.0 °F 92% 30.04 in 3.0 mi SSE 4.6 mph - N/A   Mist
8:15 AM 68.9 °F - 66.4 °F 92% 30.04 in 2.5 mi SSE 4.6 mph - N/A   Mist
8:35 AM 69.1 °F - 66.6 °F 92% 30.05 in 2.5 mi South 5.8 mph - N/A   Mist
8:55 AM 69.3 °F - 66.7 °F 92% 30.05 in 2.5 mi South 5.8 mph - N/A   Mist
9:15 AM 69.8 °F - 67.1 °F 91% 30.06 in 2.5 mi South 4.6 mph - N/A   Mist
9:35 AM 69.8 °F - 67.1 °F 91% 30.05 in 2.5 mi South 5.8 mph - N/A   Mist
9:55 AM 70.5 °F - 67.5 °F 90% 30.06 in 3.0 mi South 5.8 mph - N/A   Mist
10:15 AM 71.1 °F - 67.5 °F 88% 30.05 in 4.0 mi South 6.9 mph - N/A   Mist
10:35 AM 71.2 °F - 67.6 °F 88% 30.05 in 4.0 mi South 6.9 mph - N/A   Mist
10:55 AM 71.6 °F - 68.0 °F 88% 30.05 in 4.0 mi South 5.8 mph - N/A   Mist
11:15 AM 72.7 °F - 68.0 °F 85% 30.05 in 5.0 mi South 6.9 mph - N/A   Haze
11:35 AM 73.8 °F - 68.2 °F 83% 30.05 in 7.0 mi South 6.9 mph - N/A   Unknown
11:55 AM 74.3 °F - 68.2 °F 81% 30.04 in 7.0 mi South 6.9 mph - N/A   Unknown
12:15 PM 75.4 °F - 68.5 °F 79% 30.04 in 7.0 mi SSE 6.9 mph - N/A   Unknown
12:35 PM 75.7 °F - 68.7 °F 79% 30.04 in 10.0 mi SSE 9.2 mph - N/A   Unknown
12:55 PM 76.1 °F - 68.7 °F 78% 30.03 in 10.0 mi South 6.9 mph - N/A   Unknown
1:15 PM 77.2 °F - 68.9 °F 76% 30.03 in 10.0 mi South 6.9 mph - N/A   Unknown
1:35 PM 78.6 °F - 69.4 °F 73% 30.02 in 10.0 mi SSE 8.1 mph - N/A   Unknown
1:55 PM 77.9 °F - 68.9 °F 74% 30.02 in 10.0 mi South 8.1 mph - N/A   Unknown
2:15 PM 78.1 °F - 69.1 °F 74% 30.02 in 10.0 mi SSE 10.4 mph - N/A   Unknown
2:35 PM 78.4 °F - 69.1 °F 73% 30.02 in 10.0 mi South 6.9 mph - N/A   Unknown
2:55 PM 79.0 °F - 69.6 °F 73% 30.02 in 10.0 mi SW 4.6 mph - N/A   Unknown
3:15 PM 79.0 °F - 69.4 °F 72% 30.01 in 10.0 mi SSW 3.5 mph - N/A   Unknown
3:35 PM 79.5 °F - 69.6 °F 72% 30.01 in 10.0 mi SW 5.8 mph - N/A   Unknown
3:55 PM 79.7 °F - 69.6 °F 71% 30.01 in 10.0 mi Calm Calm - N/A   Unknown
4:15 PM 79.7 °F - 69.4 °F 71% 30.01 in 10.0 mi SSW 3.5 mph - N/A   Unknown
4:35 PM 79.3 °F - 69.6 °F 72% 30.01 in 10.0 mi SSE 4.6 mph - N/A   Unknown
4:55 PM 80.6 °F 83.9 °F 69.8 °F 70% 30.00 in 10.0 mi SSE 5.8 mph - N/A   Unknown
5:15 PM 79.9 °F - 70.0 °F 72% 30.00 in 10.0 mi SSE 6.9 mph - N/A   Unknown
5:35 PM 79.9 °F - 70.0 °F 72% 30.00 in 10.0 mi SSE 8.1 mph - N/A   Unknown
5:55 PM 79.0 °F - 70.0 °F 74% 30.00 in 10.0 mi South 8.1 mph - N/A   Unknown
6:15 PM 77.9 °F - 69.8 °F 76% 30.00 in 10.0 mi South 6.9 mph - N/A   Unknown
6:35 PM 76.8 °F - 69.8 °F 79% 30.00 in 10.0 mi South 8.1 mph - N/A   Unknown
6:55 PM 75.2 °F - 69.4 °F 82% 30.01 in 10.0 mi South 6.9 mph - N/A   Unknown
7:15 PM 75.2 °F - 69.8 °F 83% 30.01 in 10.0 mi South 8.1 mph - N/A   Unknown
7:35 PM 73.8 °F - 69.3 °F 86% 30.01 in 10.0 mi South 6.9 mph - N/A   Unknown
7:55 PM 73.8 °F - 69.4 °F 86% 30.02 in 7.0 mi South 8.1 mph - N/A   Unknown
8:15 PM 72.7 °F - 68.9 °F 88% 30.02 in 7.0 mi South 3.5 mph - N/A   Unknown
8:35 PM 72.1 °F - 68.9 °F 89% 30.02 in 7.0 mi SSE 4.6 mph - N/A   Unknown
8:55 PM 71.6 °F - 68.5 °F 90% 30.03 in 7.0 mi South 4.6 mph - N/A   Unknown
9:15 PM 71.6 °F - 68.7 °F 91% 30.03 in 5.0 mi South 5.8 mph - N/A   Mist
9:35 PM 71.4 °F - 68.5 °F 91% 30.03 in 5.0 mi South 4.6 mph - N/A   Mist
9:55 PM 71.6 °F - 68.5 °F 90% 30.03 in 5.0 mi South 5.8 mph - N/A   Mist
10:15 PM 71.6 °F - 68.4 °F 89% 30.03 in 5.0 mi South 3.5 mph - N/A   Mist
10:35 PM 70.0 °F - 67.1 °F 91% 30.04 in 4.0 mi Calm Calm - N/A   Mist
10:55 PM 69.8 °F - 67.3 °F 92% 30.04 in 4.0 mi Calm Calm - N/A   Mist
11:15 PM 68.5 °F - 66.0 °F 92% 30.04 in 3.0 mi Calm Calm - N/A   Mist
11:35 PM 67.3 °F - 65.1 °F 93% 30.04 in 1.5 mi Calm Calm - N/A   Mist
11:55 PM 67.5 °F - 65.5 °F 93% 30.04 in 1.5 mi Calm Calm - N/A   Mist